White Plains, CT

5:49 PM EDT on September 19, 2019 (GMT -0400)
Westchester County

Weather History for KHPN - July, 2019

Change the Weather History Date:

Tuesday, July 30, 2019

  Actual Average Record
Temperature  
Mean Temperature 82 °F -  
Max Temperature 91 °F 80 °F 94 °F (1988)
Min Temperature 73 °F 63 °F 55 °F (2014)
Cooling Degree Days 17    
Growing Degree Days 32 (Base 50)    
Moisture  
Dew Point 69 °F    
Average Humidity 67    
Maximum Humidity 87    
Minimum Humidity 44    
Precipitation  
Precipitation 0.00 in - - ()
Sea Level Pressure  
Sea Level Pressure 29.97 in    
Wind  
Wind Speed 3 mph (South)    
Max Wind Speed 10 mph    
Max Gust Speed -    
Visibility 10 miles    
Events      
Averages and records for this station are not official NWS values.
T = Trace of Precipitation, MM = Missing Value Source: NWS Daily Summary

Daily Weather History Graph

Daily Weather History Graph

Search for Another Location

Airport or City:

Astronomy

Jul. 30, 2019 Rise Set
Actual Time 5:48 AM EDT 8:13 PM EDT
Civil Twilight 5:17 AM EDT 8:44 PM EDT
Nautical Twilight 4:38 AM EDT 9:23 PM EDT
Astronomical Twilight 3:55 AM EDT 10:05 PM EDT
Moon 3:53 AM EDT (7/30) 7:16 PM EDT (7/30)
Length of Visible Light 15h 27m
Length of Day
14h 25m
Waning Crescent, 3% of the Moon is Illuminated
Jul 30
Waning Crescent
Jul 31
New
Aug 7
First Quarter
Aug 15
Full
Aug 23
Last Quarter

Hourly Weather History & Observations

Time (EDT) Temp. Heat Index Dew Point Humidity Pressure Visibility Wind Dir Wind Speed Gust Speed Precip Events Conditions
12:56 AM 75.9 °F - 68.0 °F 76% 29.97 in 10.0 mi Calm Calm - N/A   Clear
1:56 AM 75.9 °F - 68.0 °F 76% 29.96 in 10.0 mi Calm Calm - N/A   Clear
2:56 AM 73.9 °F - 69.1 °F 85% 29.96 in 10.0 mi Calm Calm - N/A   Clear
3:56 AM 73.9 °F - 68.0 °F 82% 29.96 in 10.0 mi Calm Calm - N/A   Clear
4:56 AM 73.9 °F - 69.1 °F 85% 29.96 in 10.0 mi Calm Calm - N/A   Clear
5:56 AM 73.0 °F - 69.1 °F 87% 29.97 in 8.0 mi Calm Calm - N/A   Clear
6:56 AM 77.0 °F - 70.0 °F 79% 29.98 in 10.0 mi Calm Calm - N/A   Clear
7:56 AM 79.0 °F - 71.1 °F 77% 29.99 in 10.0 mi WSW 3.5 mph - N/A   Clear
8:56 AM 82.0 °F 86.3 °F 71.1 °F 69% 30.00 in 10.0 mi Variable 3.5 mph - N/A   Clear
9:56 AM 84.9 °F 90.7 °F 72.0 °F 65% 30.00 in 10.0 mi SE 4.6 mph - N/A   Clear
10:56 AM 88.0 °F 92.1 °F 69.1 °F 53% 29.99 in 10.0 mi Calm Calm - N/A   Partly Cloudy
11:56 AM 90.0 °F 92.8 °F 66.9 °F 46% 29.99 in 10.0 mi SSW 4.6 mph - N/A   Partly Cloudy
12:56 PM 89.1 °F 93.7 °F 69.1 °F 52% 29.98 in 10.0 mi SW 4.6 mph - N/A   Scattered Clouds
1:56 PM 91.9 °F 95.4 °F 66.9 °F 44% 29.96 in 10.0 mi SSW 9.2 mph - N/A   Scattered Clouds
2:56 PM 87.1 °F 92.8 °F 71.1 °F 59% 29.96 in 10.0 mi SSE 10.4 mph - N/A   Mostly Cloudy
3:56 PM 87.1 °F 92.8 °F 71.1 °F 59% 29.95 in 10.0 mi Variable 4.6 mph - N/A   Scattered Clouds
4:56 PM 88.0 °F 92.9 °F 70.0 °F 55% 29.94 in 10.0 mi SSW 9.2 mph - N/A   Scattered Clouds
5:56 PM 87.1 °F 92.0 °F 70.0 °F 57% 29.94 in 10.0 mi South 9.2 mph - N/A   Clear
6:56 PM 84.9 °F 88.2 °F 68.0 °F 57% 29.95 in 10.0 mi South 9.2 mph - N/A   Clear
7:56 PM 81.0 °F 83.3 °F 66.9 °F 62% 29.96 in 10.0 mi SSE 5.8 mph - N/A   Clear
8:56 PM 77.0 °F - 66.9 °F 71% 29.96 in 10.0 mi SSE 6.9 mph - N/A   Clear
9:56 PM 77.0 °F - 68.0 °F 74% 29.98 in 10.0 mi SSE 3.5 mph - N/A   Clear
10:56 PM 78.1 °F - 69.1 °F 74% 29.98 in 10.0 mi Calm Calm - N/A   Partly Cloudy
11:56 PM 79.0 °F - 68.0 °F 69% 29.98 in 10.0 mi South 5.8 mph - N/A   Clear